sat.trackr.live / text

‹ back to catalog

STARLINK-34108

NORAD 65872 · 2025-223U

PAYLOAD ACTIVE UNKNOWN

§ Identity

Operator
Country
US
Launch date
2025-10-03
Launch site
AFWTR
Launch vehicle
Mass (kg)
RCS (m²)

Purposes: comms

External: N2YO · Heavens-Above · Gunter

§ Orbital elements

Epoch: 2026-09-19T21:02:13.786080Z

Period
93.85 min
Inclination
53.1576°
Eccentricity
0.0000794
Mean motion
15.34406526 rev/d
Perigee alt
462.1 km
Apogee alt
463.2 km
Semi-major
6,840.8 km
B*
2.9236e-4
RAAN
110.2729°
Arg perigee
83.7952°
Mean anomaly
276.3141°
Rev number
5,396

§ Raw data

STARLINK-341081 65872U 25223U   26262.87654845  .00009516  00000+0  29236-3 0  99922 65872  53.1576 110.2729 0000794  83.7952 276.3141 15.34406526 53966

JSON: /api/v1/satellites/65872 · /tle

For live sub-satellite position, see the globe view (requires WebGL).

§ Visibility from observer

Set your observer location to see the next 7 days of passes ≥ 10°. The values pass through the URL so the page stays shareable.

No JS? Fill the form by hand. The geolocation button needs JavaScript.